Time,TemperatureF,DewpointF,PressureIn,WindDirection,WindDirectionDegrees,WindSpeedMPH,WindSpeedGustMPH,Humidity,HourlyPrecipIn,Conditions,Clouds,dailyrainin,SoftwareType,DateUTC
2013-01-18 00:00:00,35.2,29.7,30.07,WNW,299,0.0,4.0,80,0.00,,SKC,0.00,VWS V14.00,2013-01-18 05:00:00,
2013-01-18 00:01:00,35.1,29.6,30.06,WNW,299,1.0,2.0,80,0.00,,SKC,0.00,VWS V14.00,2013-01-18 05:01:00,
2013-01-18 00:02:00,35.1,29.6,30.06,WNW,299,0.0,2.0,80,0.00,,SKC,0.00,VWS V14.00,2013-01-18 05:02:00,
2013-01-18 00:05:00,35.1,29.6,30.06,WNW,299,1.0,5.0,80,0.00,,SKC,0.00,VWS V14.00,2013-01-18 05:05:00,
2013-01-18 00:10:00,35.1,29.6,30.07,WNW,299,0.0,5.0,80,0.00,,SKC,0.00,VWS V14.00,2013-01-18 05:10:00,
2013-01-18 00:15:00,35.1,29.6,30.06,WNW,299,1.0,5.0,80,0.00,,SKC,0.00,VWS V14.00,2013-01-18 05:15:00,
2013-01-18 00:20:00,35.0,29.5,30.08,WNW,299,0.0,5.0,80,0.00,,SKC,0.00,VWS V14.00,2013-01-18 05:20:00,
2013-01-18 00:25:00,35.0,29.2,30.07,WNW,299,0.0,0.0,79,0.00,,SKC,0.00,VWS V14.00,2013-01-18 05:25:00,
2013-01-18 00:30:00,35.1,29.2,30.08,WNW,299,0.0,5.0,79,0.00,,SKC,0.00,VWS V14.00,2013-01-18 05:30:00,
2013-01-18 00:31:00,35.1,29.3,30.08,WNW,299,1.0,2.0,79,0.00,,SKC,0.00,VWS V14.00,2013-01-18 05:31:00,
2013-01-18 00:37:00,35.1,29.3,30.08,WNW,299,0.0,2.0,79,0.00,,SKC,0.00,VWS V14.00,2013-01-18 05:37:00,
2013-01-18 00:42:00,35.2,29.0,30.09,WNW,299,1.0,5.0,78,0.00,,SKC,0.00,VWS V14.00,2013-01-18 05:42:00,
2013-01-18 00:47:00,35.3,28.8,30.09,WNW,299,0.0,5.0,77,0.00,,SKC,0.00,VWS V14.00,2013-01-18 05:47:00,
2013-01-18 00:52:00,35.4,28.9,30.09,WNW,299,1.0,5.0,77,0.00,,SKC,0.00,VWS V14.00,2013-01-18 05:52:00,
2013-01-18 00:57:00,35.3,28.8,30.08,WNW,299,4.0,4.0,77,0.00,,SKC,0.00,VWS V14.00,2013-01-18 05:57:00,
2013-01-18 01:00:00,35.4,28.9,30.09,WNW,299,1.0,5.0,77,0.00,,SKC,0.00,VWS V14.00,2013-01-18 06:00:00,
2013-01-18 01:02:00,35.3,29.1,30.09,WNW,299,1.0,4.0,78,0.00,,SKC,0.00,VWS V14.00,2013-01-18 06:02:00,
2013-01-18 01:08:00,35.2,29.0,30.10,WNW,299,0.0,5.0,78,0.00,,SKC,0.00,VWS V14.00,2013-01-18 06:08:00,
2013-01-18 01:13:00,35.2,29.0,30.12,WNW,299,2.0,5.0,78,0.00,,SKC,0.00,VWS V14.00,2013-01-18 06:13:00,
2013-01-18 01:18:00,35.2,28.7,30.12,WNW,299,0.0,5.0,77,0.00,,SKC,0.00,VWS V14.00,2013-01-18 06:18:00,
2013-01-18 01:23:00,35.2,29.0,30.11,WNW,299,2.0,5.0,78,0.00,,SKC,0.00,VWS V14.00,2013-01-18 06:23:00,
2013-01-18 01:28:00,35.2,29.0,30.11,WNW,299,0.0,4.0,78,0.00,,SKC,0.00,VWS V14.00,2013-01-18 06:28:00,
2013-01-18 01:30:00,35.2,28.7,30.11,WNW,299,0.0,5.0,77,0.00,,SKC,0.00,VWS V14.00,2013-01-18 06:30:00,
2013-01-18 01:33:00,35.1,28.9,30.11,WNW,299,0.0,4.0,78,0.00,,SKC,0.00,VWS V14.00,2013-01-18 06:33:00,
2013-01-18 01:38:00,34.9,28.8,30.11,WNW,300,1.0,4.0,78,0.00,,SKC,0.00,VWS V14.00,2013-01-18 06:38:00,
2013-01-18 01:43:00,34.8,29.0,30.11,WNW,296,0.0,6.0,79,0.00,,SKC,0.00,VWS V14.00,2013-01-18 06:43:00,
2013-01-18 01:48:00,34.6,28.5,30.12,WNW,296,0.0,6.0,78,0.00,,SKC,0.00,VWS V14.00,2013-01-18 06:48:00,
2013-01-18 01:53:00,34.5,28.4,30.12,WNW,300,1.0,6.0,78,0.00,,SKC,0.00,VWS V14.00,2013-01-18 06:53:00,
2013-01-18 01:58:00,34.5,28.4,30.12,WNW,300,1.0,4.0,78,0.00,,SKC,0.00,VWS V14.00,2013-01-18 06:58:00,
2013-01-18 02:00:00,34.5,28.4,30.12,WNW,300,4.0,6.0,78,0.00,,SKC,0.00,VWS V14.00,2013-01-18 07:00:00,
2013-01-18 02:05:00,34.6,28.1,30.12,WNW,300,0.0,4.0,77,0.00,,SKC,0.00,VWS V14.00,2013-01-18 07:05:00,
2013-01-18 02:10:00,34.5,28.0,30.12,WNW,300,0.0,4.0,77,0.00,,SKC,0.00,VWS V14.00,2013-01-18 07:10:00,
2013-01-18 02:15:00,34.4,28.3,30.12,WNW,300,0.0,4.0,78,0.00,,SKC,0.00,VWS V14.00,2013-01-18 07:15:00,
2013-01-18 02:20:00,34.2,28.1,30.13,WNW,300,1.0,4.0,78,0.00,,SKC,0.00,VWS V14.00,2013-01-18 07:20:00,
2013-01-18 02:25:00,34.0,27.9,30.12,WNW,300,5.0,5.0,78,0.00,,SKC,0.00,VWS V14.00,2013-01-18 07:25:00,
2013-01-18 02:30:00,34.0,27.9,30.12,WNW,293,2.0,6.0,78,0.00,,SKC,0.00,VWS V14.00,2013-01-18 07:30:00,
2013-01-18 02:35:00,34.1,27.7,30.13,WNW,294,0.0,6.0,77,0.00,,SKC,0.00,VWS V14.00,2013-01-18 07:35:00,
2013-01-18 02:40:00,34.4,27.3,30.13,West,278,4.0,7.0,75,0.00,,SKC,0.00,VWS V14.00,2013-01-18 07:40:00,
2013-01-18 02:45:00,34.6,27.2,30.13,WNW,284,2.0,7.0,74,0.00,,SKC,0.00,VWS V14.00,2013-01-18 07:45:00,
2013-01-18 02:50:00,34.6,27.2,30.14,WNW,284,1.0,7.0,74,0.00,,SKC,0.00,VWS V14.00,2013-01-18 07:50:00,
2013-01-18 02:55:00,34.6,27.2,30.13,NW,320,0.0,5.0,74,0.00,,SKC,0.00,VWS V14.00,2013-01-18 07:55:00,
2013-01-18 03:00:00,34.4,27.0,30.14,NW,318,1.0,5.0,74,0.00,,SKC,0.00,VWS V14.00,2013-01-18 08:00:00,
2013-01-18 03:06:00,34.4,26.7,30.14,WNW,291,1.0,7.0,73,0.00,,SKC,0.00,VWS V14.00,2013-01-18 08:06:00,
2013-01-18 03:11:00,34.5,26.4,30.14,WNW,291,0.0,7.0,72,0.00,,SKC,0.00,VWS V14.00,2013-01-18 08:11:00,
2013-01-18 03:16:00,34.4,26.0,30.15,WNW,291,2.0,7.0,71,0.00,,SKC,0.00,VWS V14.00,2013-01-18 08:16:00,
2013-01-18 03:21:00,34.4,26.3,30.15,WNW,291,0.0,7.0,72,0.00,,SKC,0.00,VWS V14.00,2013-01-18 08:21:00,
2013-01-18 03:26:00,34.2,26.1,30.15,WNW,289,1.0,5.0,72,0.00,,SKC,0.00,VWS V14.00,2013-01-18 08:26:00,
2013-01-18 03:30:00,34.3,26.2,30.15,WNW,291,5.0,7.0,72,0.00,,SKC,0.00,VWS V14.00,2013-01-18 08:30:00,
2013-01-18 03:32:00,34.1,26.0,30.15,WNW,290,4.0,5.0,72,0.00,,SKC,0.00,VWS V14.00,2013-01-18 08:32:00,
2013-01-18 03:39:00,33.9,25.5,30.16,WNW,292,4.0,6.0,71,0.00,,SKC,0.00,VWS V14.00,2013-01-18 08:39:00,
2013-01-18 03:44:00,33.9,24.8,30.16,West,271,4.0,6.0,69,0.00,,SKC,0.00,VWS V14.00,2013-01-18 08:44:00,
2013-01-18 03:49:00,34.0,24.9,30.16,WNW,288,0.0,9.0,69,0.00,,SKC,0.00,VWS V14.00,2013-01-18 08:49:00,
2013-01-18 03:54:00,34.1,24.7,30.16,NW,315,5.0,6.0,68,0.00,,SKC,0.00,VWS V14.00,2013-01-18 08:54:00,
2013-01-18 03:59:00,34.5,25.0,30.16,WNW,292,18.0,18.0,68,0.00,,SKC,0.00,VWS V14.00,2013-01-18 08:59:00,
2013-01-18 04:00:00,34.1,24.7,30.16,NW,314,6.0,9.0,68,0.00,,SKC,0.00,VWS V14.00,2013-01-18 09:00:00,
2013-01-18 04:04:00,34.9,24.7,30.16,NNW,331,7.0,18.0,66,0.01,,SKC,0.01,VWS V14.00,2013-01-18 09:04:00,
2013-01-18 04:09:00,35.1,24.9,30.17,NNW,346,8.0,19.0,66,0.01,,SKC,0.01,VWS V14.00,2013-01-18 09:09:00,
2013-01-18 04:14:00,35.1,24.9,30.17,WNW,298,8.0,19.0,66,0.01,,SKC,0.01,VWS V14.00,2013-01-18 09:14:00,
2013-01-18 04:19:00,34.8,23.9,30.17,NW,309,12.0,19.0,64,0.01,,SKC,0.01,VWS V14.00,2013-01-18 09:19:00,
2013-01-18 04:24:00,34.6,24.1,30.18,NNW,333,9.0,9.0,65,0.01,,SKC,0.01,VWS V14.00,2013-01-18 09:24:00,
2013-01-18 04:29:00,34.2,23.7,30.18,NW,319,6.0,13.0,65,0.01,,SKC,0.01,VWS V14.00,2013-01-18 09:29:00,
2013-01-18 04:30:00,34.6,24.1,30.18,NW,321,6.0,19.0,65,0.01,,SKC,0.01,VWS V14.00,2013-01-18 09:30:00,
2013-01-18 04:35:00,33.9,23.8,30.19,NNW,344,9.0,13.0,66,0.01,,SKC,0.01,VWS V14.00,2013-01-18 09:35:00,
2013-01-18 04:41:00,33.4,23.6,30.20,NNW,329,5.0,15.0,67,0.01,,SKC,0.01,VWS V14.00,2013-01-18 09:41:00,
2013-01-18 04:46:00,33.3,23.5,30.20,NNW,330,13.0,15.0,67,0.01,,SKC,0.01,VWS V14.00,2013-01-18 09:46:00,
2013-01-18 04:51:00,33.2,23.5,30.20,WNW,294,12.0,15.0,67,0.01,,SKC,0.01,VWS V14.00,2013-01-18 09:51:00,
2013-01-18 04:56:00,33.2,23.5,30.21,NW,312,9.0,13.0,67,0.01,,SKC,0.01,VWS V14.00,2013-01-18 09:56:00,
2013-01-18 05:00:00,33.2,23.5,30.21,WNW,297,7.0,15.0,67,0.01,,SKC,0.01,VWS V14.00,2013-01-18 10:00:00,
2013-01-18 05:01:00,33.2,23.5,30.21,NNW,330,6.0,15.0,67,0.01,,SKC,0.01,VWS V14.00,2013-01-18 10:01:00,
2013-01-18 05:07:00,33.1,23.4,30.22,NW,313,11.0,15.0,67,0.01,,SKC,0.01,VWS V14.00,2013-01-18 10:07:00,
2013-01-18 05:13:00,33.0,23.2,30.22,NW,322,5.0,15.0,67,0.01,,SKC,0.01,VWS V14.00,2013-01-18 10:13:00,
2013-01-18 05:18:00,32.9,23.2,30.23,NW,320,9.0,15.0,67,0.01,,SKC,0.01,VWS V14.00,2013-01-18 10:18:00,
2013-01-18 05:23:00,33.0,22.9,30.24,NNW,345,5.0,15.0,66,0.01,,SKC,0.01,VWS V14.00,2013-01-18 10:23:00,
2013-01-18 05:28:00,33.0,22.5,30.24,NNW,333,4.0,11.0,65,0.00,,SKC,0.01,VWS V14.00,2013-01-18 10:28:00,
2013-01-18 05:30:00,33.0,22.9,30.24,NW,321,7.0,15.0,66,0.01,,SKC,0.01,VWS V14.00,2013-01-18 10:30:00,
2013-01-18 05:33:00,32.9,22.1,30.24,WNW,302,15.0,19.0,64,0.00,,SKC,0.01,VWS V14.00,2013-01-18 10:33:00,
2013-01-18 05:38:00,32.9,22.1,30.25,NNW,337,5.0,19.0,64,0.00,,SKC,0.01,VWS V14.00,2013-01-18 10:38:00,
2013-01-18 05:44:00,32.8,22.0,30.25,NNW,343,9.0,19.0,64,0.00,,SKC,0.01,VWS V14.00,2013-01-18 10:44:00,
2013-01-18 05:49:00,32.6,21.8,30.26,NW,320,10.0,20.0,64,0.00,,SKC,0.01,VWS V14.00,2013-01-18 10:49:00,
2013-01-18 05:54:00,32.0,23.3,30.27,WNW,301,8.0,8.0,70,0.00,,SKC,0.01,VWS V14.00,2013-01-18 10:54:00,
2013-01-18 05:59:00,31.3,24.0,30.27,NW,308,14.0,14.0,74,0.00,,SKC,0.01,VWS V14.00,2013-01-18 10:59:00,
2013-01-18 06:00:00,32.1,23.4,30.27,NW,323,6.0,20.0,70,0.00,,SKC,0.01,VWS V14.00,2013-01-18 11:00:00,
2013-01-18 06:04:00,31.2,23.2,30.28,NW,325,5.0,14.0,72,0.00,,SKC,0.01,VWS V14.00,2013-01-18 11:04:00,
2013-01-18 06:09:00,31.2,22.6,30.28,NW,313,8.0,14.0,70,0.00,,SKC,0.01,VWS V14.00,2013-01-18 11:09:00,
2013-01-18 06:14:00,31.4,21.7,30.28,NW,323,17.0,17.0,67,0.00,,SKC,0.01,VWS V14.00,2013-01-18 11:14:00,
2013-01-18 06:19:00,31.4,19.1,30.29,NW,312,9.0,19.0,60,0.00,,SKC,0.01,VWS V14.00,2013-01-18 11:19:00,
2013-01-18 06:24:00,31.4,17.9,30.29,NW,318,8.0,18.0,57,0.00,,SKC,0.01,VWS V14.00,2013-01-18 11:24:00,
2013-01-18 06:29:00,31.1,17.2,30.30,WNW,295,11.0,19.0,56,0.00,,SKC,0.01,VWS V14.00,2013-01-18 11:29:00,
2013-01-18 06:30:00,31.4,18.4,30.29,NW,311,18.0,20.0,58,0.00,,SKC,0.01,VWS V14.00,2013-01-18 11:30:00,
2013-01-18 06:34:00,30.8,17.0,30.30,NW,304,13.0,20.0,56,0.00,,SKC,0.01,VWS V14.00,2013-01-18 11:34:00,
2013-01-18 06:40:00,30.6,17.2,30.31,NW,308,9.0,20.0,57,0.00,,SKC,0.01,VWS V14.00,2013-01-18 11:40:00,
2013-01-18 06:45:00,30.4,17.0,30.31,WNW,288,8.0,20.0,57,0.00,,SKC,0.01,VWS V14.00,2013-01-18 11:45:00,
2013-01-18 06:50:00,30.2,16.8,30.32,WNW,299,9.0,20.0,57,0.00,,SKC,0.01,VWS V14.00,2013-01-18 11:50:00,
2013-01-18 06:55:00,30.0,16.6,30.32,WNW,294,6.0,18.0,57,0.00,,SKC,0.01,VWS V14.00,2013-01-18 11:55:00,
2013-01-18 07:00:00,30.0,16.6,30.32,NNW,346,11.0,18.0,57,0.00,,SKC,0.01,VWS V14.00,2013-01-18 12:00:00,
2013-01-18 07:05:00,29.9,16.5,30.33,WNW,291,15.0,18.0,57,0.00,,SKC,0.01,VWS V14.00,2013-01-18 12:05:00,
2013-01-18 07:10:00,29.8,15.2,30.33,NNW,330,15.0,18.0,54,0.00,,SKC,0.01,VWS V14.00,2013-01-18 12:10:00,
2013-01-18 07:15:00,29.7,15.5,30.34,NW,321,11.0,18.0,55,0.00,,SKC,0.01,VWS V14.00,2013-01-18 12:15:00,
2013-01-18 07:20:00,29.5,15.3,30.35,NNW,336,6.0,18.0,55,0.00,,SKC,0.01,VWS V14.00,2013-01-18 12:20:00,
2013-01-18 07:25:00,29.4,15.2,30.35,NW,321,7.0,11.0,55,0.00,,SKC,0.01,VWS V14.00,2013-01-18 12:25:00,
2013-01-18 07:30:00,29.4,14.4,30.36,NW,322,9.0,14.0,53,0.00,,SKC,0.01,VWS V14.00,2013-01-18 12:30:00,
2013-01-18 07:35:00,29.3,14.7,30.36,NW,317,6.0,15.0,54,0.00,,SKC,0.01,VWS V14.00,2013-01-18 12:35:00,
2013-01-18 07:41:00,29.2,15.1,30.37,NW,311,12.0,17.0,55,0.00,,SKC,0.01,VWS V14.00,2013-01-18 12:41:00,
2013-01-18 07:46:00,29.2,15.1,30.37,NNW,347,6.0,17.0,55,0.00,,SKC,0.01,VWS V14.00,2013-01-18 12:46:00,
2013-01-18 07:51:00,29.2,15.1,30.38,WNW,301,7.0,17.0,55,0.00,,SKC,0.01,VWS V14.00,2013-01-18 12:51:00,
2013-01-18 07:56:00,29.2,13.8,30.39,NNW,333,7.0,12.0,52,0.00,,SKC,0.01,VWS V14.00,2013-01-18 12:56:00,
2013-01-18 08:00:00,29.2,14.2,30.39,North,355,5.0,17.0,53,0.00,,SKC,0.01,VWS V14.00,2013-01-18 13:00:00,
2013-01-18 08:01:00,29.2,14.2,30.39,NNW,346,6.0,12.0,53,0.00,,SKC,0.01,VWS V14.00,2013-01-18 13:01:00,
2013-01-18 08:06:00,29.2,14.2,30.40,WNW,302,4.0,12.0,53,0.00,,SKC,0.01,VWS V14.00,2013-01-18 13:06:00,
2013-01-18 08:11:00,29.2,14.2,30.40,NW,305,5.0,12.0,53,0.00,,SKC,0.01,VWS V14.00,2013-01-18 13:11:00,
2013-01-18 08:17:00,29.1,14.5,30.41,North,5,3.0,12.0,54,0.00,,SKC,0.01,VWS V14.00,2013-01-18 13:17:00,
2013-01-18 08:22:00,29.0,14.4,30.42,NW,324,6.0,12.0,54,0.00,,SKC,0.01,VWS V14.00,2013-01-18 13:22:00,
2013-01-18 08:27:00,29.0,14.9,30.42,NW,309,5.0,9.0,55,0.00,,SKC,0.01,VWS V14.00,2013-01-18 13:27:00,
2013-01-18 08:30:00,29.0,14.4,30.42,WNW,289,1.0,12.0,54,0.00,,SKC,0.01,VWS V14.00,2013-01-18 13:30:00,
2013-01-18 08:32:00,29.0,14.4,30.43,NW,304,4.0,16.0,54,0.00,,SKC,0.01,VWS V14.00,2013-01-18 13:32:00,
2013-01-18 08:37:00,29.0,14.9,30.43,NNW,329,6.0,16.0,55,0.00,,SKC,0.01,VWS V14.00,2013-01-18 13:37:00,
2013-01-18 08:42:00,29.0,14.0,30.43,WNW,296,9.0,16.0,53,0.00,,SKC,0.01,VWS V14.00,2013-01-18 13:42:00,
2013-01-18 08:47:00,28.9,13.9,30.44,NNW,330,12.0,18.0,53,0.00,,SKC,0.01,VWS V14.00,2013-01-18 13:47:00,
2013-01-18 08:52:00,28.8,14.3,30.44,NW,318,7.0,18.0,54,0.00,,SKC,0.01,VWS V14.00,2013-01-18 13:52:00,
2013-01-18 08:57:00,28.8,13.8,30.44,NNW,331,10.0,14.0,53,0.00,,SKC,0.01,VWS V14.00,2013-01-18 13:57:00,
2013-01-18 09:00:00,28.8,14.7,30.44,NW,307,12.0,18.0,55,0.00,,SKC,0.01,VWS V14.00,2013-01-18 14:00:00,
2013-01-18 09:02:00,28.7,14.6,30.44,NW,319,7.0,14.0,55,0.00,,SKC,0.01,VWS V14.00,2013-01-18 14:02:00,
2013-01-18 09:07:00,29.0,14.4,30.45,NNW,333,5.0,15.0,54,0.00,,SKC,0.01,VWS V14.00,2013-01-18 14:07:00,
2013-01-18 09:14:00,29.2,14.6,30.45,NNW,334,8.0,15.0,54,0.00,,SKC,0.01,VWS V14.00,2013-01-18 14:14:00,
2013-01-18 09:19:00,29.1,14.5,30.45,West,269,8.0,19.0,54,0.00,,SKC,0.01,VWS V14.00,2013-01-18 14:19:00,
2013-01-18 09:24:00,28.9,14.4,30.46,NW,319,5.0,19.0,54,0.00,,SKC,0.01,VWS V14.00,2013-01-18 14:24:00,
2013-01-18 09:29:00,28.9,13.9,30.47,NNW,329,8.0,12.0,53,0.00,,SKC,0.01,VWS V14.00,2013-01-18 14:29:00,
2013-01-18 09:30:00,28.9,14.4,30.46,NW,319,5.0,19.0,54,0.00,,SKC,0.01,VWS V14.00,2013-01-18 14:30:00,
2013-01-18 09:34:00,29.1,14.1,30.47,WNW,302,5.0,12.0,53,0.00,,SKC,0.01,VWS V14.00,2013-01-18 14:34:00,
2013-01-18 09:39:00,29.2,14.2,30.47,WNW,303,11.0,16.0,53,0.00,,SKC,0.01,VWS V14.00,2013-01-18 14:39:00,
2013-01-18 09:44:00,28.9,13.9,30.48,NNW,337,5.0,16.0,53,0.00,,SKC,0.01,VWS V14.00,2013-01-18 14:44:00,
2013-01-18 09:49:00,28.9,13.9,30.48,NW,320,8.0,16.0,53,0.00,,SKC,0.01,VWS V14.00,2013-01-18 14:49:00,
2013-01-18 09:54:00,28.8,13.8,30.48,NW,309,12.0,12.0,53,0.00,,SKC,0.01,VWS V14.00,2013-01-18 14:54:00,
2013-01-18 09:59:00,28.8,14.3,30.48,NW,322,8.0,19.0,54,0.00,,SKC,0.01,VWS V14.00,2013-01-18 14:59:00,
2013-01-18 10:00:00,28.8,13.8,30.48,NW,325,12.0,16.0,53,0.00,,SKC,0.01,VWS V14.00,2013-01-18 15:00:00,
2013-01-18 10:04:00,28.7,13.3,30.48,NW,317,7.0,19.0,52,0.00,,SKC,0.01,VWS V14.00,2013-01-18 15:04:00,
2013-01-18 10:09:00,28.6,12.8,30.49,WNW,287,12.0,19.0,51,0.00,,SKC,0.01,VWS V14.00,2013-01-18 15:09:00,
2013-01-18 10:14:00,28.7,13.3,30.49,West,279,11.0,19.0,52,0.00,,SKC,0.01,VWS V14.00,2013-01-18 15:14:00,
2013-01-18 10:19:00,28.5,13.1,30.49,NW,311,5.0,19.0,52,0.00,,SKC,0.01,VWS V14.00,2013-01-18 15:19:00,
2013-01-18 10:25:00,28.7,13.8,30.50,NW,312,6.0,19.0,53,0.00,,SKC,0.01,VWS V14.00,2013-01-18 15:25:00,
2013-01-18 10:30:00,28.6,12.8,30.50,NW,311,9.0,16.0,51,0.00,,SKC,0.01,VWS V14.00,2013-01-18 15:30:00,
2013-01-18 10:35:00,28.4,12.6,30.51,WNW,290,7.0,16.0,51,0.00,,SKC,0.01,VWS V14.00,2013-01-18 15:35:00,
2013-01-18 10:40:00,28.6,12.8,30.51,NW,321,8.0,16.0,51,0.00,,SKC,0.01,VWS V14.00,2013-01-18 15:40:00,
2013-01-18 10:45:00,28.7,12.4,30.51,NNW,329,6.0,16.0,50,0.00,,SKC,0.01,VWS V14.00,2013-01-18 15:45:00,
2013-01-18 10:50:00,28.9,13.1,30.50,WNW,297,9.0,16.0,51,0.00,,SKC,0.01,VWS V14.00,2013-01-18 15:50:00,
2013-01-18 10:55:00,28.8,12.1,30.50,NNW,334,7.0,16.0,49,0.00,,SKC,0.01,VWS V14.00,2013-01-18 15:55:00,
2013-01-18 11:01:00,29.0,11.8,30.50,WNW,284,7.0,7.0,48,0.00,,SKC,0.01,VWS V14.00,2013-01-18 16:01:00,
2013-01-18 11:06:00,28.5,11.8,30.51,NW,314,5.0,14.0,49,0.00,,SKC,0.01,VWS V14.00,2013-01-18 16:06:00,
2013-01-18 11:11:00,28.4,13.0,30.51,North,355,5.0,14.0,52,0.00,,SKC,0.01,VWS V14.00,2013-01-18 16:11:00,
2013-01-18 11:16:00,29.0,12.7,30.51,WNW,300,7.0,14.0,50,0.00,,SKC,0.01,VWS V14.00,2013-01-18 16:16:00,
2013-01-18 11:22:00,28.9,12.1,30.51,NW,315,5.0,14.0,49,0.00,,SKC,0.01,VWS V14.00,2013-01-18 16:22:00,
2013-01-18 11:27:00,28.6,11.9,30.51,WNW,296,2.0,7.0,49,0.00,,SKC,0.01,VWS V14.00,2013-01-18 16:27:00,
2013-01-18 11:30:00,28.7,11.0,30.51,WNW,288,5.0,14.0,47,0.00,,SKC,0.01,VWS V14.00,2013-01-18 16:30:00,
2013-01-18 11:32:00,28.9,12.6,30.50,WNW,294,7.0,14.0,50,0.00,,SKC,0.01,VWS V14.00,2013-01-18 16:32:00,
2013-01-18 11:37:00,29.3,12.5,30.51,WNW,290,9.0,14.0,49,0.00,,SKC,0.01,VWS V14.00,2013-01-18 16:37:00,
2013-01-18 11:42:00,29.2,12.0,30.50,WNW,296,6.0,14.0,48,0.00,,SKC,0.01,VWS V14.00,2013-01-18 16:42:00,
2013-01-18 11:47:00,29.0,12.2,30.50,West,281,7.0,15.0,49,0.00,,SKC,0.01,VWS V14.00,2013-01-18 16:47:00,
2013-01-18 11:53:00,29.0,12.7,30.49,NW,314,5.0,15.0,50,0.00,,SKC,0.01,VWS V14.00,2013-01-18 16:53:00,
2013-01-18 11:59:00,29.1,12.3,30.49,NW,309,6.0,15.0,49,0.00,,SKC,0.01,VWS V14.00,2013-01-18 16:59:00,
2013-01-18 12:04:00,29.7,11.9,30.49,NNW,333,6.0,9.0,47,0.00,,SKC,0.01,VWS V14.00,2013-01-18 17:04:00,
2013-01-18 12:09:00,29.6,10.9,30.49,NW,325,5.0,12.0,45,0.00,,SKC,0.01,VWS V14.00,2013-01-18 17:09:00,
2013-01-18 12:14:00,29.5,11.3,30.49,NNW,340,8.0,13.0,46,0.00,,SKC,0.01,VWS V14.00,2013-01-18 17:14:00,
2013-01-18 12:19:00,29.4,10.7,30.49,NW,309,6.0,13.0,45,0.00,,SKC,0.01,VWS V14.00,2013-01-18 17:19:00,
2013-01-18 12:25:00,29.5,11.8,30.49,NNW,342,7.0,13.0,47,0.00,,SKC,0.01,VWS V14.00,2013-01-18 17:25:00,
2013-01-18 12:30:00,29.8,12.0,30.49,North,355,4.0,9.0,47,0.00,,SKC,0.01,VWS V14.00,2013-01-18 17:30:00,
2013-01-18 12:35:00,29.7,11.9,30.48,NW,307,7.0,9.0,47,0.00,,SKC,0.01,VWS V14.00,2013-01-18 17:35:00,
2013-01-18 12:40:00,29.9,12.1,30.48,NW,323,7.0,9.0,47,0.00,,SKC,0.01,VWS V14.00,2013-01-18 17:40:00,
2013-01-18 12:45:00,29.8,11.6,30.48,NW,325,7.0,11.0,46,0.00,,SKC,0.01,VWS V14.00,2013-01-18 17:45:00,
2013-01-18 12:50:00,29.7,11.0,30.48,NW,313,8.0,15.0,45,0.00,,SKC,0.01,VWS V14.00,2013-01-18 17:50:00,
2013-01-18 12:55:00,29.5,10.3,30.48,NNW,340,4.0,15.0,44,0.00,,SKC,0.01,VWS V14.00,2013-01-18 17:55:00,
2013-01-18 13:00:00,30.4,10.6,30.49,NNW,331,7.0,13.0,43,0.00,,SKC,0.01,VWS V14.00,2013-01-18 18:00:00,
2013-01-18 13:01:00,29.5,10.3,30.48,NNW,340,4.0,15.0,44,0.00,,SKC,0.01,VWS V14.00,2013-01-18 18:01:00,
2013-01-18 13:06:00,30.0,12.2,30.48,North,349,7.0,12.0,47,0.00,,SKC,0.01,VWS V14.00,2013-01-18 18:06:00,
2013-01-18 13:11:00,30.1,11.3,30.48,NW,312,6.0,12.0,45,0.00,,SKC,0.01,VWS V14.00,2013-01-18 18:11:00,
2013-01-18 13:16:00,29.9,10.6,30.48,WNW,301,1.0,12.0,44,0.00,,SKC,0.01,VWS V14.00,2013-01-18 18:16:00,
2013-01-18 13:21:00,29.9,11.6,30.48,NW,309,4.0,12.0,46,0.00,,SKC,0.01,VWS V14.00,2013-01-18 18:21:00,
2013-01-18 13:27:00,30.3,11.5,30.49,NW,324,5.0,8.0,45,0.00,,SKC,0.01,VWS V14.00,2013-01-18 18:27:00,
2013-01-18 13:30:00,30.1,12.3,30.49,NW,313,5.0,12.0,47,0.00,,SKC,0.01,VWS V14.00,2013-01-18 18:30:00,
2013-01-18 13:32:00,30.2,10.4,30.49,NNW,340,5.0,9.0,43,0.00,,SKC,0.01,VWS V14.00,2013-01-18 18:32:00,
2013-01-18 13:37:00,30.3,12.0,30.48,WNW,288,7.0,13.0,46,0.00,,SKC,0.01,VWS V14.00,2013-01-18 18:37:00,
2013-01-18 13:42:00,30.2,11.4,30.49,NW,315,6.0,13.0,45,0.00,,SKC,0.01,VWS V14.00,2013-01-18 18:42:00,
2013-01-18 13:47:00,30.3,11.0,30.49,NW,313,5.0,13.0,44,0.00,,SKC,0.01,VWS V14.00,2013-01-18 18:47:00,
2013-01-18 13:52:00,30.5,10.7,30.49,WNW,300,12.0,13.0,43,0.00,,SKC,0.01,VWS V14.00,2013-01-18 18:52:00,
2013-01-18 13:58:00,30.5,10.7,30.49,NNW,345,6.0,9.0,43,0.00,,SKC,0.01,VWS V14.00,2013-01-18 18:58:00,
2013-01-18 14:00:00,30.4,10.6,30.49,NNW,331,7.0,13.0,43,0.00,,SKC,0.01,VWS V14.00,2013-01-18 19:00:00,
2013-01-18 14:06:00,30.6,11.3,30.49,WNW,297,11.0,11.0,44,0.00,,SKC,0.01,VWS V14.00,2013-01-18 19:06:00,
2013-01-18 14:11:00,30.8,11.5,30.49,NW,304,1.0,12.0,44,0.00,,SKC,0.01,VWS V14.00,2013-01-18 19:11:00,
2013-01-18 14:16:00,30.9,11.1,30.48,WNW,300,4.0,15.0,43,0.00,,SKC,0.01,VWS V14.00,2013-01-18 19:16:00,
2013-01-18 14:21:00,30.7,11.9,30.48,WNW,287,6.0,15.0,45,0.00,,SKC,0.01,VWS V14.00,2013-01-18 19:21:00,
2013-01-18 14:26:00,30.9,12.1,30.48,NW,313,4.0,6.0,45,0.00,,SKC,0.01,VWS V14.00,2013-01-18 19:26:00,
2013-01-18 14:30:00,30.8,11.5,30.48,SW,223,1.0,15.0,44,0.00,,SKC,0.01,VWS V14.00,2013-01-18 19:30:00,
2013-01-18 14:31:00,30.9,11.6,30.48,WNW,286,5.0,16.0,44,0.00,,SKC,0.01,VWS V14.00,2013-01-18 19:31:00,
2013-01-18 14:36:00,30.9,11.6,30.48,WNW,302,2.0,16.0,44,0.00,,SKC,0.01,VWS V14.00,2013-01-18 19:36:00,
2013-01-18 14:41:00,31.0,11.7,30.49,WNW,288,4.0,16.0,44,0.00,,SKC,0.01,VWS V14.00,2013-01-18 19:41:00,
2013-01-18 14:46:00,31.4,12.5,30.49,WSW,238,2.0,16.0,45,0.00,,SKC,0.01,VWS V14.00,2013-01-18 19:46:00,
2013-01-18 14:51:00,31.6,11.2,30.49,WNW,287,6.0,16.0,42,0.00,,SKC,0.01,VWS V14.00,2013-01-18 19:51:00,
2013-01-18 14:56:00,31.5,10.5,30.49,WNW,302,6.0,7.0,41,0.00,,SKC,0.01,VWS V14.00,2013-01-18 19:56:00,
2013-01-18 15:00:00,31.6,10.1,30.49,WSW,250,4.0,16.0,40,0.00,,SKC,0.01,VWS V14.00,2013-01-18 20:00:00,
2013-01-18 15:02:00,31.4,9.9,30.49,WNW,297,6.0,12.0,40,0.00,,SKC,0.01,VWS V14.00,2013-01-18 20:02:00,
2013-01-18 15:07:00,30.9,10.0,30.50,NW,306,6.0,12.0,41,0.00,,SKC,0.01,VWS V14.00,2013-01-18 20:07:00,
2013-01-18 15:12:00,31.2,10.2,30.50,WNW,293,2.0,12.0,41,0.00,,SKC,0.01,VWS V14.00,2013-01-18 20:12:00,
2013-01-18 15:17:00,31.4,10.4,30.50,NW,305,4.0,12.0,41,0.00,,SKC,0.01,VWS V14.00,2013-01-18 20:17:00,
2013-01-18 15:22:00,31.5,11.1,30.50,NNW,335,5.0,12.0,42,0.00,,SKC,0.01,VWS V14.00,2013-01-18 20:22:00,
2013-01-18 15:27:00,31.5,11.1,30.50,NW,310,6.0,9.0,42,0.00,,SKC,0.01,VWS V14.00,2013-01-18 20:27:00,
2013-01-18 15:30:00,31.6,11.2,30.50,WNW,292,6.0,12.0,42,0.00,,SKC,0.01,VWS V14.00,2013-01-18 20:30:00,
2013-01-18 15:32:00,31.2,11.8,30.50,WNW,295,4.0,9.0,44,0.00,,SKC,0.01,VWS V14.00,2013-01-18 20:32:00,
2013-01-18 15:37:00,31.5,12.1,30.50,SW,236,3.0,9.0,44,0.00,,SKC,0.01,VWS V14.00,2013-01-18 20:37:00,
2013-01-18 15:42:00,31.7,11.8,30.50,WSW,242,3.0,9.0,43,0.00,,SKC,0.01,VWS V14.00,2013-01-18 20:42:00,
2013-01-18 15:47:00,31.7,12.8,30.50,NW,309,2.0,9.0,45,0.00,,SKC,0.01,VWS V14.00,2013-01-18 20:47:00,
2013-01-18 15:52:00,31.5,12.1,30.51,WNW,297,5.0,9.0,44,0.00,,SKC,0.01,VWS V14.00,2013-01-18 20:52:00,
2013-01-18 15:57:00,31.2,11.8,30.50,WNW,283,9.0,12.0,44,0.00,,SKC,0.01,VWS V14.00,2013-01-18 20:57:00,
2013-01-18 16:00:00,31.4,11.5,30.50,WNW,293,9.0,9.0,43,0.00,,SKC,0.01,VWS V14.00,2013-01-18 21:00:00,
2013-01-18 16:04:00,31.0,11.1,30.50,West,279,2.0,12.0,43,0.00,,SKC,0.01,VWS V14.00,2013-01-18 21:04:00,
2013-01-18 16:09:00,31.0,11.1,30.50,WNW,298,6.0,12.0,43,0.00,,SKC,0.01,VWS V14.00,2013-01-18 21:09:00,
2013-01-18 16:14:00,31.0,11.7,30.50,WNW,292,1.0,12.0,44,0.00,,SKC,0.01,VWS V14.00,2013-01-18 21:14:00,
2013-01-18 16:19:00,31.0,11.7,30.50,WNW,282,2.0,12.0,44,0.00,,SKC,0.01,VWS V14.00,2013-01-18 21:19:00,
2013-01-18 16:24:00,31.0,11.7,30.50,WNW,292,5.0,5.0,44,0.00,,SKC,0.01,VWS V14.00,2013-01-18 21:24:00,
2013-01-18 16:29:00,31.0,11.7,30.50,WNW,290,5.0,6.0,44,0.00,,SKC,0.01,VWS V14.00,2013-01-18 21:29:00,
2013-01-18 16:30:00,31.0,11.7,30.50,WSW,237,2.0,12.0,44,0.00,,SKC,0.01,VWS V14.00,2013-01-18 21:30:00,
2013-01-18 16:34:00,30.7,10.3,30.50,WNW,290,2.0,8.0,42,0.00,,SKC,0.01,VWS V14.00,2013-01-18 21:34:00,
2013-01-18 16:39:00,30.4,10.6,30.50,WNW,284,5.0,8.0,43,0.00,,SKC,0.01,VWS V14.00,2013-01-18 21:39:00,
2013-01-18 16:44:00,30.3,10.5,30.50,WSW,250,1.0,8.0,43,0.00,,SKC,0.01,VWS V14.00,2013-01-18 21:44:00,
2013-01-18 16:49:00,30.1,10.3,30.50,West,269,0.0,8.0,43,0.00,,SKC,0.01,VWS V14.00,2013-01-18 21:49:00,
2013-01-18 16:54:00,30.0,10.2,30.50,West,281,0.0,4.0,43,0.00,,SKC,0.01,VWS V14.00,2013-01-18 21:54:00,
2013-01-18 17:00:00,29.9,10.6,30.50,West,281,1.0,4.0,44,0.00,,SKC,0.01,VWS V14.00,2013-01-18 22:00:00,
2013-01-18 17:06:00,29.7,10.5,30.50,West,280,1.0,6.0,44,0.00,,SKC,0.01,VWS V14.00,2013-01-18 22:06:00,
2013-01-18 17:11:00,29.6,10.9,30.50,WNW,290,1.0,1.0,45,0.00,,SKC,0.01,VWS V14.00,2013-01-18 22:11:00,
2013-01-18 17:16:00,29.4,10.7,30.50,WNW,290,0.0,2.0,45,0.00,,SKC,0.01,VWS V14.00,2013-01-18 22:16:00,
2013-01-18 17:21:00,29.3,11.1,30.50,WNW,290,0.0,2.0,46,0.00,,SKC,0.01,VWS V14.00,2013-01-18 22:21:00,
2013-01-18 17:26:00,29.1,11.4,30.50,WNW,290,0.0,1.0,47,0.00,,SKC,0.01,VWS V14.00,2013-01-18 22:26:00,
2013-01-18 17:30:00,29.2,11.0,30.50,WNW,290,0.0,2.0,46,0.00,,SKC,0.01,VWS V14.00,2013-01-18 22:30:00,
2013-01-18 17:32:00,28.9,11.2,30.51,WNW,290,0.0,1.0,47,0.00,,SKC,0.01,VWS V14.00,2013-01-18 22:32:00,
2013-01-18 17:39:00,28.8,11.1,30.51,WNW,290,0.0,4.0,47,0.00,,SKC,0.01,VWS V14.00,2013-01-18 22:39:00,
2013-01-18 17:44:00,28.7,11.5,30.51,WNW,290,0.0,4.0,48,0.00,,SKC,0.01,VWS V14.00,2013-01-18 22:44:00,
2013-01-18 17:49:00,28.5,11.8,30.51,WNW,290,0.0,4.0,49,0.00,,SKC,0.01,VWS V14.00,2013-01-18 22:49:00,
2013-01-18 17:54:00,28.3,11.6,30.51,WNW,290,0.0,0.0,49,0.00,,SKC,0.01,VWS V14.00,2013-01-18 22:54:00,
2013-01-18 17:59:00,28.0,11.8,30.51,WNW,290,0.0,1.0,50,0.00,,SKC,0.01,VWS V14.00,2013-01-18 22:59:00,
2013-01-18 18:00:00,28.3,11.6,30.51,WNW,290,0.0,4.0,49,0.00,,SKC,0.01,VWS V14.00,2013-01-18 23:00:00,
2013-01-18 18:04:00,27.8,12.5,30.51,WNW,290,0.0,1.0,52,0.00,,SKC,0.01,VWS V14.00,2013-01-18 23:04:00,
2013-01-18 18:09:00,27.7,13.2,30.51,WNW,290,0.0,1.0,54,0.00,,SKC,0.01,VWS V14.00,2013-01-18 23:09:00,
2013-01-18 18:14:00,27.6,12.7,30.51,WNW,290,0.0,1.0,53,0.00,,SKC,0.01,VWS V14.00,2013-01-18 23:14:00,
2013-01-18 18:19:00,27.5,12.6,30.51,WNW,290,0.0,1.0,53,0.00,,SKC,0.01,VWS V14.00,2013-01-18 23:19:00,
2013-01-18 18:24:00,27.3,12.4,30.51,WNW,290,0.0,0.0,53,0.00,,SKC,0.01,VWS V14.00,2013-01-18 23:24:00,
2013-01-18 18:29:00,27.2,11.9,30.51,WNW,290,0.0,0.0,52,0.00,,SKC,0.01,VWS V14.00,2013-01-18 23:29:00,
2013-01-18 18:30:00,27.3,12.4,30.51,WNW,290,0.0,1.0,53,0.00,,SKC,0.01,VWS V14.00,2013-01-18 23:30:00,
2013-01-18 18:35:00,27.0,12.2,30.51,WNW,290,0.0,0.0,53,0.00,,SKC,0.01,VWS V14.00,2013-01-18 23:35:00,
2013-01-18 18:41:00,26.8,12.4,30.51,WNW,290,0.0,0.0,54,0.00,,SKC,0.01,VWS V14.00,2013-01-18 23:41:00,
2013-01-18 18:46:00,26.9,12.5,30.51,WNW,290,0.0,0.0,54,0.00,,SKC,0.01,VWS V14.00,2013-01-18 23:46:00,
2013-01-18 18:51:00,26.8,14.0,30.51,WNW,290,0.0,0.0,58,0.00,,SKC,0.01,VWS V14.00,2013-01-18 23:51:00,
2013-01-18 18:56:00,26.7,13.9,30.51,WNW,290,0.0,0.0,58,0.00,,SKC,0.01,VWS V14.00,2013-01-18 23:56:00,
2013-01-18 19:00:00,26.8,14.0,30.51,WNW,290,0.0,0.0,58,0.00,,SKC,0.01,VWS V14.00,2013-01-19 00:00:00,
2013-01-18 19:01:00,26.6,13.4,30.51,WNW,290,0.0,0.0,57,0.00,,SKC,0.01,VWS V14.00,2013-01-19 00:01:00,
2013-01-18 19:07:00,26.6,13.8,30.50,WNW,290,0.0,0.0,58,0.00,,SKC,0.01,VWS V14.00,2013-01-19 00:07:00,
2013-01-18 19:12:00,26.5,13.7,30.51,WNW,290,0.0,0.0,58,0.00,,SKC,0.01,VWS V14.00,2013-01-19 00:12:00,
2013-01-18 19:17:00,26.3,13.6,30.50,WNW,290,0.0,0.0,58,0.00,,SKC,0.01,VWS V14.00,2013-01-19 00:17:00,
2013-01-18 19:22:00,26.2,13.4,30.51,WNW,290,0.0,0.0,58,0.00,,SKC,0.01,VWS V14.00,2013-01-19 00:22:00,
2013-01-18 19:27:00,26.1,13.8,30.50,WNW,290,0.0,0.0,59,0.00,,SKC,0.01,VWS V14.00,2013-01-19 00:27:00,
2013-01-18 19:30:00,26.1,13.4,30.50,WNW,290,0.0,0.0,58,0.00,,SKC,0.01,VWS V14.00,2013-01-19 00:30:00,
2013-01-18 19:32:00,26.0,14.0,30.50,WNW,290,0.0,0.0,60,0.00,,SKC,0.01,VWS V14.00,2013-01-19 00:32:00,
2013-01-18 19:39:00,26.0,14.0,30.50,WNW,290,0.0,0.0,60,0.00,,SKC,0.01,VWS V14.00,2013-01-19 00:39:00,
2013-01-18 19:44:00,26.0,13.6,30.50,WNW,290,0.0,0.0,59,0.00,,SKC,0.01,VWS V14.00,2013-01-19 00:44:00,
2013-01-18 19:49:00,26.1,13.8,30.50,WNW,290,0.0,0.0,59,0.00,,SKC,0.01,VWS V14.00,2013-01-19 00:49:00,
2013-01-18 19:54:00,26.1,13.8,30.50,WNW,290,0.0,0.0,59,0.00,,SKC,0.01,VWS V14.00,2013-01-19 00:54:00,
2013-01-18 19:59:00,26.2,13.8,30.50,WNW,290,0.0,0.0,59,0.00,,SKC,0.01,VWS V14.00,2013-01-19 00:59:00,
2013-01-18 20:00:00,26.1,13.8,30.50,WNW,290,0.0,0.0,59,0.00,,SKC,0.01,VWS V14.00,2013-01-19 01:00:00,
2013-01-18 20:04:00,26.2,13.8,30.50,WNW,290,0.0,0.0,59,0.00,,SKC,0.01,VWS V14.00,2013-01-19 01:04:00,
2013-01-18 20:10:00,26.3,13.6,30.50,WNW,290,0.0,0.0,58,0.00,,SKC,0.01,VWS V14.00,2013-01-19 01:10:00,
2013-01-18 20:15:00,26.3,13.1,30.51,WNW,290,0.0,2.0,57,0.00,,SKC,0.01,VWS V14.00,2013-01-19 01:15:00,
2013-01-18 20:20:00,26.5,13.3,30.50,WNW,290,0.0,2.0,57,0.00,,SKC,0.01,VWS V14.00,2013-01-19 01:20:00,
2013-01-18 20:25:00,26.6,13.4,30.50,WNW,290,0.0,0.0,57,0.00,,SKC,0.01,VWS V14.00,2013-01-19 01:25:00,
2013-01-18 20:30:00,26.8,14.0,30.49,WNW,290,2.0,2.0,58,0.00,,SKC,0.01,VWS V14.00,2013-01-19 01:30:00,
2013-01-18 20:36:00,26.9,13.7,30.49,WNW,290,0.0,2.0,57,0.00,,SKC,0.01,VWS V14.00,2013-01-19 01:36:00,
2013-01-18 20:41:00,27.0,13.8,30.49,WNW,288,0.0,2.0,57,0.00,,SKC,0.01,VWS V14.00,2013-01-19 01:41:00,
2013-01-18 20:46:00,27.0,13.8,30.49,West,278,4.0,5.0,57,0.00,,SKC,0.01,VWS V14.00,2013-01-19 01:46:00,
2013-01-18 20:51:00,27.2,13.6,30.49,West,278,0.0,5.0,56,0.00,,SKC,0.01,VWS V14.00,2013-01-19 01:51:00,
2013-01-18 20:56:00,27.3,13.7,30.49,South,191,0.0,3.0,56,0.00,,SKC,0.01,VWS V14.00,2013-01-19 01:56:00,
2013-01-18 21:00:00,27.2,13.6,30.48,West,278,0.0,5.0,56,0.00,,SKC,0.01,VWS V14.00,2013-01-19 02:00:00,
2013-01-18 21:01:00,27.4,13.4,30.48,SSW,194,0.0,3.0,55,0.00,,SKC,0.01,VWS V14.00,2013-01-19 02:01:00,
2013-01-18 21:07:00,27.5,13.5,30.48,SSW,194,0.0,3.0,55,0.00,,SKC,0.01,VWS V14.00,2013-01-19 02:07:00,
2013-01-18 21:14:00,27.6,13.6,30.48,SSW,213,0.0,3.0,55,0.00,,SKC,0.01,VWS V14.00,2013-01-19 02:14:00,
2013-01-18 21:19:00,27.7,13.2,30.48,SSW,204,2.0,3.0,54,0.00,,SKC,0.01,VWS V14.00,2013-01-19 02:19:00,
2013-01-18 21:24:00,27.8,13.3,30.48,SSW,196,0.0,1.0,54,0.00,,SKC,0.01,VWS V14.00,2013-01-19 02:24:00,
2013-01-18 21:29:00,27.9,13.4,30.48,SSW,196,0.0,3.0,54,0.00,,SKC,0.01,VWS V14.00,2013-01-19 02:29:00,
2013-01-18 21:30:00,27.8,13.3,30.48,SSW,196,0.0,5.0,54,0.00,,SKC,0.01,VWS V14.00,2013-01-19 02:30:00,
2013-01-18 21:34:00,27.9,13.4,30.48,SSW,205,0.0,4.0,54,0.00,,SKC,0.01,VWS V14.00,2013-01-19 02:34:00,
2013-01-18 21:40:00,27.9,13.4,30.48,SSW,205,1.0,4.0,54,0.00,,SKC,0.01,VWS V14.00,2013-01-19 02:40:00,
2013-01-18 21:45:00,27.8,13.3,30.48,SSW,205,0.0,4.0,54,0.00,,SKC,0.01,VWS V14.00,2013-01-19 02:45:00,
2013-01-18 21:50:00,27.8,13.3,30.48,SSW,205,0.0,4.0,54,0.00,,SKC,0.01,VWS V14.00,2013-01-19 02:50:00,
2013-01-18 21:55:00,27.7,13.2,30.48,SSW,205,1.0,1.0,54,0.00,,SKC,0.01,VWS V14.00,2013-01-19 02:55:00,
2013-01-18 22:00:00,27.6,13.1,30.47,SSW,205,0.0,2.0,54,0.00,,SKC,0.01,VWS V14.00,2013-01-19 03:00:00,
2013-01-18 22:06:00,27.5,13.5,30.48,SSW,205,0.0,2.0,55,0.00,,SKC,0.01,VWS V14.00,2013-01-19 03:06:00,
2013-01-18 22:12:00,27.4,13.4,30.47,SSW,205,0.0,2.0,55,0.00,,SKC,0.01,VWS V14.00,2013-01-19 03:12:00,
2013-01-18 22:17:00,27.3,13.3,30.47,SSW,205,0.0,2.0,55,0.00,,SKC,0.01,VWS V14.00,2013-01-19 03:17:00,
2013-01-18 22:22:00,27.3,13.7,30.47,SSW,205,0.0,3.0,56,0.00,,SKC,0.01,VWS V14.00,2013-01-19 03:22:00,
2013-01-18 22:27:00,27.2,13.6,30.47,SSW,205,1.0,3.0,56,0.00,,SKC,0.01,VWS V14.00,2013-01-19 03:27:00,
2013-01-18 22:30:00,27.2,13.2,30.47,SSW,205,0.0,3.0,55,0.00,,SKC,0.01,VWS V14.00,2013-01-19 03:30:00,
2013-01-18 22:32:00,27.2,13.2,30.47,SSW,205,0.0,3.0,55,0.00,,SKC,0.01,VWS V14.00,2013-01-19 03:32:00,
2013-01-18 22:38:00,27.2,13.2,30.46,SSW,205,0.0,3.0,55,0.00,,SKC,0.01,VWS V14.00,2013-01-19 03:38:00,
2013-01-18 22:44:00,27.2,13.2,30.46,SSW,205,0.0,3.0,55,0.00,,SKC,0.01,VWS V14.00,2013-01-19 03:44:00,
2013-01-18 22:49:00,27.2,13.2,30.46,SSW,205,0.0,3.0,55,0.00,,SKC,0.01,VWS V14.00,2013-01-19 03:49:00,
2013-01-18 22:54:00,27.3,13.3,30.46,SSW,205,0.0,0.0,55,0.00,,SKC,0.01,VWS V14.00,2013-01-19 03:54:00,
2013-01-18 22:59:00,27.3,13.7,30.45,SSW,205,0.0,2.0,56,0.00,,SKC,0.01,VWS V14.00,2013-01-19 03:59:00,
2013-01-18 23:00:00,27.3,13.3,30.46,SSW,205,0.0,3.0,55,0.00,,SKC,0.01,VWS V14.00,2013-01-19 04:00:00,
2013-01-18 23:04:00,27.3,13.7,30.45,SSW,205,0.0,2.0,56,0.00,,SKC,0.01,VWS V14.00,2013-01-19 04:04:00,
2013-01-18 23:09:00,27.4,13.8,30.45,SSW,205,0.0,2.0,56,0.00,,SKC,0.01,VWS V14.00,2013-01-19 04:09:00,
2013-01-18 23:14:00,27.4,13.8,30.45,SSW,205,0.0,3.0,56,0.00,,SKC,0.01,VWS V14.00,2013-01-19 04:14:00,
2013-01-18 23:19:00,27.4,13.8,30.44,SSW,205,0.0,3.0,56,0.00,,SKC,0.01,VWS V14.00,2013-01-19 04:19:00,
2013-01-18 23:24:00,27.4,13.8,30.45,SSW,205,0.0,0.0,56,0.00,,SKC,0.01,VWS V14.00,2013-01-19 04:24:00,
2013-01-18 23:29:00,27.4,14.6,30.44,SSW,205,0.0,1.0,58,0.00,,SKC,0.01,VWS V14.00,2013-01-19 04:29:00,
2013-01-18 23:30:00,27.4,13.8,30.44,SSW,205,0.0,3.0,56,0.00,,SKC,0.01,VWS V14.00,2013-01-19 04:30:00,
2013-01-18 23:34:00,27.3,14.9,30.44,SSW,205,0.0,1.0,59,0.00,,SKC,0.01,VWS V14.00,2013-01-19 04:34:00,
2013-01-18 23:40:00,27.1,15.1,30.44,SSW,205,0.0,1.0,60,0.00,,SKC,0.01,VWS V14.00,2013-01-19 04:40:00,
2013-01-18 23:45:00,26.9,14.9,30.44,SSW,205,0.0,1.0,60,0.00,,SKC,0.01,VWS V14.00,2013-01-19 04:45:00,
2013-01-18 23:50:00,26.8,14.8,30.44,SSW,205,0.0,1.0,60,0.00,,SKC,0.01,VWS V14.00,2013-01-19 04:50:00,
2013-01-18 23:55:00,26.9,14.5,30.43,SSW,205,0.0,0.0,59,0.00,,SKC,0.00,VWS V14.00,2013-01-19 04:55:00,